Total_Precipitation_Accumulation
0.00 0.00 0.00 0.00 0.00 0.00 0.00 0.00 0.00 0.00 0.00 0.00 0.02 0.28 0.71 1.53 1.55 1.52 1.23 0.87 0.79 0.43 0.27 0.16 0.11 0.21 0.09 0.00 0.00 0.00 0.00 0.03 0.04 0.02 0.01 0.00 0.00 0.01 0.01 0.01 0.00 0.00 0.00
0.00 0.00 0.00 0.00 0.00 0.00 0.00 0.00 0.00 0.00 0.00 0.00 0.01 0.12 0.55 1.73 1.96 1.67 2.04 1.40 0.92 0.61 0.31 0.13 0.09 0.15 0.10 0.00 0.00 0.00 0.00 0.01 0.02 0.01 0.00 0.00 0.01 0.00 0.01 0.01 0.00 0.00 0.00
0.00 0.00 0.00 0.00 0.00 0.00 0.00 0.00 0.00 0.00 0.00 0.00 0.00 0.04 0.34 1.12 2.33 2.03 2.07 2.22 1.46 0.80 0.42 0.14 0.08 0.10 0.17 0.06 0.00 0.00 0.00 0.00 0.01 0.00 0.00 0.00 0.00 0.00 0.00 0.00 0.00 0.00 0.00
0.00 0.00 0.00 0.00 0.00 0.00 0.00 0.01 0.00 0.00 0.00 0.00 0.01 0.01 0.15 0.52 1.66 2.06 2.12 2.41 1.99 1.49 0.62 0.26 0.08 0.11 0.13 0.09 0.01 0.00 0.00 0.00 0.00 0.00 0.00 0.00 0.00 0.00 0.00 0.00 0.00 0.00 0.00
0.00 0.00 0.00 0.00 0.01 0.02 0.02 0.01 0.01 0.01 0.01 0.01 0.02 0.03 0.12 0.27 1.05 1.83 1.87 1.98 2.16 1.55 1.25 0.47 0.16 0.13 0.16 0.10 0.02 0.00 0.00 0.00 0.00 0.00 0.00 0.00 0.00 0.00 0.00 0.00 0.00 0.00 0.00
0.00 0.00 0.00 0.00 0.01 0.02 0.03 0.03 0.04 0.03 0.02 0.02 0.02 0.02 0.10 0.21 0.46 1.41 1.86 1.92 1.97 1.75 1.36 1.03 0.36 0.17 0.18 0.16 0.05 0.01 0.00 0.00 0.00 0.00 0.00 0.00 0.00 0.00 0.00 0.00 0.00 0.00 0.00
0.00 0.00 0.00 0.00 0.00 0.02 0.04 0.06 0.06 0.05 0.04 0.03 0.02 0.02 0.03 0.15 0.23 0.72 1.30 2.03 2.21 2.06 1.43 1.14 0.76 0.33 0.20 0.18 0.09 0.03 0.00 0.00 0.00 0.00 0.00 0.00 0.00 0.00 0.00 0.00 0.00 0.00 0.00
0.00 0.00 0.00 0.00 0.00 0.02 0.05 0.07 0.09 0.09 0.07 0.05 0.04 0.03 0.02 0.05 0.20 0.40 1.09 1.47 2.28 1.98 1.73 1.08 0.74 0.50 0.38 0.19 0.15 0.06 0.01 0.00 0.00 0.00 0.00 0.00 0.00 0.00 0.00 0.00 0.00 0.00 0.00
0.00 0.00 0.00 0.00 0.00 0.00 0.04 0.09 0.11 0.11 0.11 0.09 0.06 0.04 0.03 0.06 0.09 0.23 0.63 1.35 2.03 2.23 1.67 1.25 0.76 0.62 0.54 0.34 0.21 0.11 0.02 0.00 0.00 0.00 0.00 0.00 0.00 0.00 0.00 0.00 0.00 0.00 0.00
0.00 0.00 0.00 0.00 0.00 0.00 0.01 0.05 0.11 0.15 0.16 0.13 0.11 0.08 0.04 0.03 0.09 0.12 0.28 0.90 1.64 1.95 1.67 1.53 0.89 0.62 0.64 0.51 0.32 0.17 0.06 0.02 0.00 0.00 0.00 0.00 0.00 0.00 0.00 0.00 0.00 0.00 0.00
0.00 0.00 0.00 0.00 0.00 0.00 0.00 0.00 0.03 0.09 0.12 0.14 0.12 0.10 0.06 0.04 0.04 0.09 0.15 0.34 1.17 1.90 1.80 1.33 1.36 0.77 0.55 0.58 0.47 0.25 0.13 0.05 0.00 0.00 0.00 0.00 0.00 0.00 0.00 0.00 0.00 0.00 0.00
0.00 0.00 0.00 0.00 0.00 0.00 0.00 0.00 0.00 0.04 0.11 0.13 0.13 0.12 0.09 0.06 0.05 0.05 0.10 0.18 0.46 1.11 1.74 1.72 1.50 1.34 0.84 0.52 0.44 0.33 0.17 0.07 0.00 0.00 0.00 0.00 0.00 0.00 0.00 0.00 0.00 0.00 0.00
0.00 0.00 0.00 0.00 0.00 0.00 0.00 0.00 0.00 0.00 0.06 0.10 0.11 0.11 0.10 0.07 0.05 0.04 0.05 0.19 0.43 0.58 1.04 1.56 1.52 1.37 1.18 0.91 0.55 0.31 0.22 0.09 0.01 0.00 0.00 0.00 0.00 0.00 0.00 0.00 0.00 0.00 0.00
0.00 0.00 0.00 0.00 0.00 0.00 0.00 0.00 0.00 0.00 0.01 0.07 0.09 0.09 0.11 0.08 0.06 0.04 0.05 0.14 0.33 0.54 0.74 1.04 1.29 1.13 0.95 0.89 0.84 0.62 0.30 0.17 0.06 0.00 0.00 0.00 0.00 0.00 0.00 0.00 0.00 0.00 0.00
0.00 0.00 0.00 0.00 0.00 0.00 0.00 0.00 0.00 0.00 0.00 0.02 0.06 0.06 0.09 0.08 0.05 0.04 0.04 0.12 0.27 0.48 0.65 0.84 1.05 1.01 1.00 0.94 0.80 0.83 0.61 0.34 0.17 0.02 0.00 0.00 0.00 0.00 0.00 0.00 0.00 0.00 0.00
0.00 0.00 0.00 0.00 0.00 0.00 0.00 0.00 0.00 0.00 0.00 0.01 0.03 0.04 0.04 0.05 0.05 0.04 0.04 0.06 0.15 0.40 0.61 0.79 1.00 1.20 1.18 1.07 0.90 0.69 0.71 0.55 0.41 0.20 0.05 0.00 0.00 0.00 0.00 0.00 0.00 0.00 0.00
0.00 0.00 0.00 0.00 0.00 0.00 0.00 0.00 0.00 0.00 0.00 0.00 0.02 0.03 0.02 0.03 0.04 0.05 0.04 0.05 0.10 0.23 0.40 0.60 0.99 1.27 1.26 0.89 0.66 0.73 0.53 0.55 0.53 0.36 0.25 0.06 0.00 0.00 0.00 0.00 0.00 0.00 0.00
0.00 0.00 0.00 0.00 0.00 0.00 0.00 0.00 0.00 0.00 0.00 0.00 0.01 0.03 0.04 0.03 0.04 0.04 0.05 0.07 0.07 0.13 0.28 0.48 0.61 0.84 0.97 0.81 0.47 0.43 0.51 0.43 0.36 0.42 0.33 0.24 0.08 0.00 0.00 0.00 0.00 0.00 0.00
0.00 0.00 0.00 0.00 0.00 0.00 0.00 0.00 0.00 0.00 0.00 0.00 0.00 0.02 0.05 0.06 0.05 0.06 0.08 0.08 0.08 0.11 0.16 0.25 0.45 0.56 0.63 0.65 0.72 0.65 0.48 0.47 0.40 0.27 0.28 0.29 0.25 0.11 0.01 0.00 0.00 0.00 0.00
0.00 0.00 0.00 0.00 0.00 0.00 0.00 0.00 0.00 0.00 0.00 0.00 0.00 0.00 0.03 0.07 0.09 0.10 0.12 0.13 0.14 0.13 0.13 0.16 0.17 0.30 0.38 0.53 0.72 1.11 1.30 0.73 0.47 0.36 0.28 0.26 0.25 0.21 0.13 0.02 0.00 0.00 0.00
0.00 0.00 0.00 0.00 0.00 0.00 0.00 0.00 0.00 0.00 0.00 0.00 0.00 0.00 0.01 0.04 0.09 0.11 0.14 0.16 0.17 0.15 0.11 0.12 0.12 0.11 0.17 0.24 0.43 0.85 1.23 1.37 0.83 0.52 0.38 0.28 0.31 0.30 0.24 0.19 0.04 0.00 0.00
0.00 0.00 0.00 0.00 0.00 0.00 0.00 0.00 0.00 0.00 0.00 0.00 0.00 0.00 0.01 0.01 0.04 0.09 0.12 0.15 0.17 0.17 0.15 0.13 0.12 0.10 0.08 0.17 0.26 0.40 0.65 0.97 1.15 0.98 0.64 0.42 0.33 0.25 0.27 0.31 0.24 0.08 0.01
0.00 0.00 0.00 0.00 0.00 0.00 0.00 0.00 0.00 0.00 0.00 0.00 0.00 0.00 0.00 0.00 0.02 0.06 0.10 0.12 0.16 0.18 0.19 0.18 0.17 0.14 0.11 0.09 0.14 0.20 0.34 0.47 0.65 0.95 1.09 0.90 0.53 0.38 0.30 0.33 0.36 0.29 0.13
0.00 0.00 0.00 0.00 0.00 0.00 0.00 0.00 0.00 0.00 0.00 0.00 0.00 0.00 0.00 0.00 0.00 0.02 0.06 0.10 0.14 0.18 0.20 0.21 0.20 0.18 0.13 0.12 0.12 0.08 0.10 0.18 0.32 0.45 0.54 0.64 0.66 0.57 0.48 0.41 0.31 0.34 0.29
0.00 0.00 0.00 0.00 0.00 0.00 0.00 0.00 0.00 0.00 0.00 0.00 0.00 0.00 0.00 0.00 0.00 0.00 0.03 0.07 0.12 0.18 0.23 0.27 0.23 0.24 0.22 0.28 0.35 0.29 0.20 0.13 0.18 0.24 0.26 0.33 0.36 0.48 0.57 0.45 0.33 0.31 0.31
0.00 0.00 0.00 0.00 0.00 0.00 0.00 0.00 0.00 0.00 0.00 0.00 0.00 0.00 0.00 0.00 0.00 0.00 0.00 0.01 0.04 0.06 0.11 0.16 0.19 0.18 0.26 0.24 0.26 0.23 0.28 0.28 0.21 0.14 0.15 0.24 0.31 0.36 0.40 0.39 0.38 0.37 0.40